Year,Month,Day,Hour,Minute,Value (Times are PST for temperature in C)
2020,04,16,00,00,8.80
2020,04,16,00,01,8.80
2020,04,16,00,02,8.80
2020,04,16,00,03,8.80
2020,04,16,00,04,8.70
2020,04,16,00,05,8.70
2020,04,16,00,06,8.70
2020,04,16,00,07,8.70
2020,04,16,00,08,8.70
2020,04,16,00,09,8.70
2020,04,16,00,10,8.80
2020,04,16,00,11,8.80
2020,04,16,00,12,8.80
2020,04,16,00,13,8.80
2020,04,16,00,14,8.80
2020,04,16,00,15,8.80
2020,04,16,00,16,8.80
2020,04,16,00,17,8.80
2020,04,16,00,18,8.80
2020,04,16,00,19,8.80
2020,04,16,00,20,8.80
2020,04,16,00,21,8.70
2020,04,16,00,22,8.70
2020,04,16,00,23,8.70
2020,04,16,00,24,8.70
2020,04,16,00,25,8.70
2020,04,16,00,26,8.70
2020,04,16,00,27,8.70
2020,04,16,00,28,8.70
2020,04,16,00,29,8.70
2020,04,16,00,30,8.70
2020,04,16,00,31,8.60
2020,04,16,00,32,8.50
2020,04,16,00,33,8.50
2020,04,16,00,34,8.50
2020,04,16,00,35,8.40
2020,04,16,00,36,8.40
2020,04,16,00,37,8.40
2020,04,16,00,38,8.40
2020,04,16,00,39,8.30
2020,04,16,00,40,8.30
2020,04,16,00,41,8.30
2020,04,16,00,42,8.30
2020,04,16,00,43,8.30
2020,04,16,00,44,8.30
2020,04,16,00,45,8.30
2020,04,16,00,46,8.30
2020,04,16,00,47,8.20
2020,04,16,00,48,8.20
2020,04,16,00,49,8.20
2020,04,16,00,50,8.20
2020,04,16,00,51,8.20
2020,04,16,00,52,8.20
2020,04,16,00,53,8.20
2020,04,16,00,54,8.20
2020,04,16,00,55,8.10
2020,04,16,00,56,8.10
2020,04,16,00,57,8.10
2020,04,16,00,58,8.10
2020,04,16,00,59,8.10
2020,04,16,01,00,8.10
2020,04,16,01,01,8.10
2020,04,16,01,02,8.10
2020,04,16,01,03,8.10
2020,04,16,01,04,8.10
2020,04,16,01,05,8.10
2020,04,16,01,06,8.10
2020,04,16,01,07,8.00
2020,04,16,01,08,8.00
2020,04,16,01,09,7.90
2020,04,16,01,10,7.90
2020,04,16,01,11,7.90
2020,04,16,01,12,7.90
2020,04,16,01,13,7.80
2020,04,16,01,14,7.80
2020,04,16,01,15,7.80
2020,04,16,01,16,7.80
2020,04,16,01,17,7.80
2020,04,16,01,18,7.80
2020,04,16,01,19,7.80
2020,04,16,01,20,7.80
2020,04,16,01,21,7.70
2020,04,16,01,22,7.70
2020,04,16,01,23,7.70
2020,04,16,01,24,7.70
2020,04,16,01,25,7.70
2020,04,16,01,26,7.70
2020,04,16,01,27,7.70
2020,04,16,01,28,7.70
2020,04,16,01,29,7.70
2020,04,16,01,30,7.70
2020,04,16,01,31,7.70
2020,04,16,01,32,7.70
2020,04,16,01,33,7.80
2020,04,16,01,34,7.80
2020,04,16,01,35,7.80
2020,04,16,01,36,7.80
2020,04,16,01,37,7.80
2020,04,16,01,38,7.80
2020,04,16,01,39,7.80
2020,04,16,01,40,7.80
2020,04,16,01,41,7.80
2020,04,16,01,42,7.80
2020,04,16,01,43,7.80
2020,04,16,01,44,7.80
2020,04,16,01,45,7.80
2020,04,16,01,46,7.80
2020,04,16,01,47,7.80
2020,04,16,01,48,7.80
2020,04,16,01,49,7.80
2020,04,16,01,50,7.80
2020,04,16,01,51,7.80
2020,04,16,01,52,7.80
2020,04,16,01,53,7.80
2020,04,16,01,54,7.80
2020,04,16,01,55,7.80
2020,04,16,01,56,7.80
2020,04,16,01,57,7.80
2020,04,16,01,58,7.70
2020,04,16,01,59,7.70
2020,04,16,02,00,7.70
2020,04,16,02,01,7.70
2020,04,16,02,02,7.70
2020,04,16,02,03,7.60
2020,04,16,02,04,7.60
2020,04,16,02,05,7.60
2020,04,16,02,06,7.60
2020,04,16,02,07,7.60
2020,04,16,02,08,7.50
2020,04,16,02,09,7.50
2020,04,16,02,10,7.50
2020,04,16,02,11,7.50
2020,04,16,02,12,7.50
2020,04,16,02,13,7.50
2020,04,16,02,14,7.40
2020,04,16,02,15,7.40
2020,04,16,02,16,7.40
2020,04,16,02,17,7.40
2020,04,16,02,18,7.40
2020,04,16,02,19,7.30
2020,04,16,02,20,7.30
2020,04,16,02,21,7.30
2020,04,16,02,22,7.30
2020,04,16,02,23,7.30
2020,04,16,02,24,7.30
2020,04,16,02,25,7.30
2020,04,16,02,26,7.20
2020,04,16,02,27,7.20
2020,04,16,02,28,7.20
2020,04,16,02,29,7.20
2020,04,16,02,30,7.20
2020,04,16,02,31,7.20
2020,04,16,02,32,7.10
2020,04,16,02,33,7.10
2020,04,16,02,34,7.10
2020,04,16,02,35,7.10
2020,04,16,02,36,7.10
2020,04,16,02,37,7.10
2020,04,16,02,38,7.10
2020,04,16,02,39,7.10
2020,04,16,02,40,7.10
2020,04,16,02,41,7.10
2020,04,16,02,42,7.10
2020,04,16,02,43,7.20
2020,04,16,02,44,7.20
2020,04,16,02,45,7.20
2020,04,16,02,46,7.20
2020,04,16,02,47,7.20
2020,04,16,02,48,7.20
2020,04,16,02,49,7.20
2020,04,16,02,50,7.20
2020,04,16,02,51,7.20
2020,04,16,02,52,7.20
2020,04,16,02,53,7.20
2020,04,16,02,54,7.20
2020,04,16,02,55,7.20
2020,04,16,02,56,7.20
2020,04,16,02,57,7.20
2020,04,16,02,58,7.20
2020,04,16,02,59,7.20
2020,04,16,03,00,7.20
2020,04,16,03,01,7.20
2020,04,16,03,02,7.20
2020,04,16,03,03,7.20
2020,04,16,03,04,7.10
2020,04,16,03,05,7.10
2020,04,16,03,06,7.10
2020,04,16,03,07,7.10
2020,04,16,03,08,7.10
2020,04,16,03,09,7.20
2020,04,16,03,10,7.20
2020,04,16,03,11,7.20
2020,04,16,03,12,7.20
2020,04,16,03,13,7.20
2020,04,16,03,14,7.20
2020,04,16,03,15,7.20
2020,04,16,03,16,7.30
2020,04,16,03,17,7.30
2020,04,16,03,18,7.30
2020,04,16,03,19,7.30
2020,04,16,03,20,7.30
2020,04,16,03,21,7.30
2020,04,16,03,22,7.30
2020,04,16,03,23,7.30
2020,04,16,03,24,7.30
2020,04,16,03,25,7.30
2020,04,16,03,26,7.30
2020,04,16,03,27,7.20
2020,04,16,03,28,7.20
2020,04,16,03,29,7.20
2020,04,16,03,30,7.20
2020,04,16,03,31,7.20
2020,04,16,03,32,7.20
2020,04,16,03,33,7.20
2020,04,16,03,34,7.10
2020,04,16,03,35,7.10
2020,04,16,03,36,7.10
2020,04,16,03,37,7.10
2020,04,16,03,38,7.10
2020,04,16,03,39,7.10
2020,04,16,03,40,7.10
2020,04,16,03,41,7.10
2020,04,16,03,42,7.10
2020,04,16,03,43,7.10
2020,04,16,03,44,7.10
2020,04,16,03,45,7.10
2020,04,16,03,46,7.10
2020,04,16,03,47,7.10
2020,04,16,03,48,7.10
2020,04,16,03,49,7.00
2020,04,16,03,50,7.00
2020,04,16,03,51,7.00
2020,04,16,03,52,7.00
2020,04,16,03,53,7.10
2020,04,16,03,54,7.10
2020,04,16,03,55,7.10
2020,04,16,03,56,7.10
2020,04,16,03,57,7.20
2020,04,16,03,58,7.20
2020,04,16,03,59,7.20
2020,04,16,04,00,7.20
2020,04,16,04,01,7.20
2020,04,16,04,02,7.30
2020,04,16,04,03,7.20
2020,04,16,04,04,7.20
2020,04,16,04,05,7.20
2020,04,16,04,06,7.20
2020,04,16,04,07,7.20
2020,04,16,04,08,7.20
2020,04,16,04,09,7.20
2020,04,16,04,10,7.30
2020,04,16,04,11,7.30
2020,04,16,04,12,7.30
2020,04,16,04,13,7.30
2020,04,16,04,14,7.30
2020,04,16,04,15,7.30
2020,04,16,04,16,7.30
2020,04,16,04,17,7.30
2020,04,16,04,18,7.30
2020,04,16,04,19,7.30
2020,04,16,04,20,7.20
2020,04,16,04,21,7.20
2020,04,16,04,22,7.20
2020,04,16,04,23,7.20
2020,04,16,04,24,7.20
2020,04,16,04,25,7.10
2020,04,16,04,26,7.10
2020,04,16,04,27,7.10
2020,04,16,04,28,7.10
2020,04,16,04,29,7.10
2020,04,16,04,30,7.00
2020,04,16,04,31,7.00
2020,04,16,04,32,7.00
2020,04,16,04,33,7.00
2020,04,16,04,34,6.90
2020,04,16,04,35,6.90
2020,04,16,04,36,6.90
2020,04,16,04,37,6.80
2020,04,16,04,38,6.80
2020,04,16,04,39,6.80
2020,04,16,04,40,6.80
2020,04,16,04,41,6.70
2020,04,16,04,42,6.70
2020,04,16,04,43,6.70
2020,04,16,04,44,6.70
2020,04,16,04,45,6.70
2020,04,16,04,46,6.60
2020,04,16,04,47,6.60
2020,04,16,04,48,6.60
2020,04,16,04,49,6.60
2020,04,16,04,50,6.60
2020,04,16,04,51,6.50
2020,04,16,04,52,6.50
2020,04,16,04,53,6.50
2020,04,16,04,54,6.50
2020,04,16,04,55,6.50
2020,04,16,04,56,6.40
2020,04,16,04,57,6.40
2020,04,16,04,58,6.40
2020,04,16,04,59,6.40
2020,04,16,05,00,6.30
2020,04,16,05,01,6.30
2020,04,16,05,02,6.30
2020,04,16,05,03,6.30
2020,04,16,05,04,6.30
2020,04,16,05,05,6.30
2020,04,16,05,06,6.30
2020,04,16,05,07,6.30
2020,04,16,05,08,6.30
2020,04,16,05,09,6.30
2020,04,16,05,10,6.30
2020,04,16,05,11,6.30
2020,04,16,05,12,6.30
2020,04,16,05,13,6.30
2020,04,16,05,14,6.30
2020,04,16,05,15,6.30
2020,04,16,05,16,6.30
2020,04,16,05,17,6.30
2020,04,16,05,18,6.30
2020,04,16,05,19,6.30
2020,04,16,05,20,6.20
2020,04,16,05,21,6.20
2020,04,16,05,22,6.20
2020,04,16,05,23,6.10
2020,04,16,05,24,6.10
2020,04,16,05,25,6.10
2020,04,16,05,26,6.10
2020,04,16,05,27,6.00
2020,04,16,05,28,6.00
2020,04,16,05,29,6.00
2020,04,16,05,30,6.00
2020,04,16,05,31,6.00
2020,04,16,05,32,5.90
2020,04,16,05,33,6.00
2020,04,16,05,34,5.90
2020,04,16,05,35,5.90
2020,04,16,05,36,5.90
2020,04,16,05,37,5.80
2020,04,16,05,38,5.80
2020,04,16,05,39,5.80
2020,04,16,05,40,5.80
2020,04,16,05,41,5.80
2020,04,16,05,42,5.80
2020,04,16,05,43,5.80
2020,04,16,05,44,5.80
2020,04,16,05,45,5.80
2020,04,16,05,46,5.80
2020,04,16,05,47,5.80
2020,04,16,05,48,5.80
2020,04,16,05,49,5.70
2020,04,16,05,50,5.70
2020,04,16,05,51,5.70
2020,04,16,05,52,5.70
2020,04,16,05,53,5.70
2020,04,16,05,54,5.80
2020,04,16,05,55,5.80
2020,04,16,05,56,5.80
2020,04,16,05,57,5.80
2020,04,16,05,58,5.80
2020,04,16,05,59,5.80
2020,04,16,06,00,5.80
2020,04,16,06,01,5.80
2020,04,16,06,02,5.80
2020,04,16,06,03,5.80
2020,04,16,06,04,5.80
2020,04,16,06,05,5.80
2020,04,16,06,06,5.80
2020,04,16,06,07,5.80
2020,04,16,06,08,5.80
2020,04,16,06,09,5.80
2020,04,16,06,10,5.80
2020,04,16,06,11,5.80
2020,04,16,06,12,5.70
2020,04,16,06,13,5.70
2020,04,16,06,14,5.70
2020,04,16,06,15,5.60
2020,04,16,06,16,5.60
2020,04,16,06,17,5.60
2020,04,16,06,18,5.60
2020,04,16,06,19,5.60
2020,04,16,06,20,5.70
2020,04,16,06,21,5.70
2020,04,16,06,22,5.70
2020,04,16,06,23,5.70
2020,04,16,06,24,5.70
2020,04,16,06,25,5.70
2020,04,16,06,26,5.70
2020,04,16,06,27,5.70
2020,04,16,06,28,5.70
2020,04,16,06,29,5.70
2020,04,16,06,30,5.70
2020,04,16,06,31,5.70
2020,04,16,06,32,5.70
2020,04,16,06,33,5.70
2020,04,16,06,34,5.70
2020,04,16,06,35,5.70
2020,04,16,06,36,5.70
2020,04,16,06,37,5.70
2020,04,16,06,38,5.70
2020,04,16,06,39,5.70
2020,04,16,06,40,5.70
2020,04,16,06,41,5.70
2020,04,16,06,42,5.70
2020,04,16,06,43,5.70
2020,04,16,06,44,5.70
2020,04,16,06,45,5.70
2020,04,16,06,46,5.60
2020,04,16,06,47,5.60
2020,04,16,06,48,5.70
2020,04,16,06,49,5.70
2020,04,16,06,50,5.70
2020,04,16,06,51,5.70
2020,04,16,06,52,5.70
2020,04,16,06,53,5.70
2020,04,16,06,54,5.70
2020,04,16,06,55,5.70
2020,04,16,06,56,5.70
2020,04,16,06,57,5.70
2020,04,16,06,58,5.70
2020,04,16,06,59,5.70
2020,04,16,07,00,5.80
2020,04,16,07,01,5.80
2020,04,16,07,02,5.80
2020,04,16,07,03,5.80
2020,04,16,07,04,5.80
2020,04,16,07,05,5.80
2020,04,16,07,06,5.80
2020,04,16,07,07,5.80
2020,04,16,07,08,5.80
2020,04,16,07,09,5.80
2020,04,16,07,10,5.80
2020,04,16,07,11,5.80
2020,04,16,07,12,5.80
2020,04,16,07,13,5.80
2020,04,16,07,14,5.80
2020,04,16,07,15,5.80
2020,04,16,07,16,5.80
2020,04,16,07,17,5.80
2020,04,16,07,18,5.80
2020,04,16,07,19,5.80
2020,04,16,07,20,5.90
2020,04,16,07,21,5.90
2020,04,16,07,22,5.90
2020,04,16,07,23,6.00
2020,04,16,07,24,5.90
2020,04,16,07,25,6.00
2020,04,16,07,26,6.00
2020,04,16,07,27,6.00
2020,04,16,07,28,6.00
2020,04,16,07,29,6.00
2020,04,16,07,30,6.00
2020,04,16,07,31,6.00
2020,04,16,07,32,6.10
2020,04,16,07,33,6.10
2020,04,16,07,34,6.10
2020,04,16,07,35,6.10
2020,04,16,07,36,6.10
2020,04,16,07,37,6.10
2020,04,16,07,38,6.10
2020,04,16,07,39,6.10
2020,04,16,07,40,6.10
2020,04,16,07,41,6.10
2020,04,16,07,42,6.10
2020,04,16,07,43,6.20
2020,04,16,07,44,6.20
2020,04,16,07,45,6.20
2020,04,16,07,46,6.20
2020,04,16,07,47,6.20
2020,04,16,07,48,6.20
2020,04,16,07,49,6.20
2020,04,16,07,50,6.20
2020,04,16,07,51,6.30
2020,04,16,07,52,6.30
2020,04,16,07,53,6.30
2020,04,16,07,54,6.30
2020,04,16,07,55,6.30
2020,04,16,07,56,6.30
2020,04,16,07,57,6.30
2020,04,16,07,58,6.30
2020,04,16,07,59,6.40
2020,04,16,08,00,6.40
2020,04,16,08,01,6.40
2020,04,16,08,02,6.50
2020,04,16,08,03,6.50
2020,04,16,08,04,6.60
2020,04,16,08,05,6.60
2020,04,16,08,06,6.60
2020,04,16,08,07,6.60
2020,04,16,08,08,6.70
2020,04,16,08,09,6.70
2020,04,16,08,10,6.80
2020,04,16,08,11,6.80
2020,04,16,08,12,6.90
2020,04,16,08,13,6.90
2020,04,16,08,14,6.90
2020,04,16,08,15,7.00
2020,04,16,08,16,7.00
2020,04,16,08,17,7.10
2020,04,16,08,18,7.10
2020,04,16,08,19,7.20
2020,04,16,08,20,7.20
2020,04,16,08,21,7.30
2020,04,16,08,22,7.30
2020,04,16,08,23,7.40
2020,04,16,08,24,7.40
2020,04,16,08,25,7.50
2020,04,16,08,26,7.50
2020,04,16,08,27,7.60
2020,04,16,08,28,7.60
2020,04,16,08,29,7.70
2020,04,16,08,30,7.80
2020,04,16,08,31,7.80
2020,04,16,08,32,7.90
2020,04,16,08,33,7.90
2020,04,16,08,34,8.00
2020,04,16,08,35,8.00
2020,04,16,08,36,8.10
2020,04,16,08,37,8.10
2020,04,16,08,38,8.10
2020,04,16,08,39,8.20
2020,04,16,08,40,8.30
2020,04,16,08,41,8.30
2020,04,16,08,42,8.30
2020,04,16,08,43,8.40
2020,04,16,08,44,8.50
2020,04,16,08,45,8.50
2020,04,16,08,46,8.60
2020,04,16,08,47,8.60
2020,04,16,08,48,8.70
2020,04,16,08,49,8.70
2020,04,16,08,50,8.80
2020,04,16,08,51,8.80
2020,04,16,08,52,8.80
2020,04,16,08,53,8.90
2020,04,16,08,54,8.90
2020,04,16,08,55,8.90
2020,04,16,08,56,9.00
2020,04,16,08,57,9.00
2020,04,16,08,58,9.10
2020,04,16,08,59,9.10
2020,04,16,09,00,9.20
2020,04,16,09,01,9.20
2020,04,16,09,02,9.30
2020,04,16,09,03,9.30
2020,04,16,09,04,9.30
2020,04,16,09,05,9.40
2020,04,16,09,06,9.50
2020,04,16,09,07,9.50
2020,04,16,09,08,9.60
2020,04,16,09,09,9.60
2020,04,16,09,10,9.70
2020,04,16,09,11,9.80
2020,04,16,09,12,9.80
2020,04,16,09,13,9.90
2020,04,16,09,14,9.90
2020,04,16,09,15,10.00
2020,04,16,09,16,10.00
2020,04,16,09,17,10.10
2020,04,16,09,18,10.10
2020,04,16,09,19,10.20
2020,04,16,09,20,10.20
2020,04,16,09,21,10.30
2020,04,16,09,22,10.30
2020,04,16,09,23,10.30
2020,04,16,09,24,10.40
2020,04,16,09,25,10.40
2020,04,16,09,26,10.50
2020,04,16,09,27,10.50
2020,04,16,09,28,10.60
2020,04,16,09,29,10.70
2020,04,16,09,30,10.70
2020,04,16,09,31,10.80
2020,04,16,09,32,10.90
2020,04,16,09,33,11.00
2020,04,16,09,34,11.00
2020,04,16,09,35,11.10
2020,04,16,09,36,11.20
2020,04,16,09,37,11.30
2020,04,16,09,38,11.40
2020,04,16,09,39,11.60
2020,04,16,09,40,11.70
2020,04,16,09,41,11.90
2020,04,16,09,42,12.00
2020,04,16,09,43,12.00
2020,04,16,09,44,12.10
2020,04,16,09,45,12.20
2020,04,16,09,46,12.30
2020,04,16,09,47,12.30
2020,04,16,09,48,12.40
2020,04,16,09,49,12.50
2020,04,16,09,50,12.50
2020,04,16,09,51,12.50
2020,04,16,09,52,12.60
2020,04,16,09,53,12.60
2020,04,16,09,54,12.60
2020,04,16,09,55,12.60
2020,04,16,09,56,12.70
2020,04,16,09,57,12.70
2020,04,16,09,58,12.70
2020,04,16,09,59,12.80
2020,04,16,10,00,12.90
2020,04,16,10,01,12.90
2020,04,16,10,02,13.00
2020,04,16,10,03,13.10
2020,04,16,10,04,13.10
2020,04,16,10,05,13.20
2020,04,16,10,06,13.20
2020,04,16,10,07,13.30
2020,04,16,10,08,13.40
2020,04,16,10,09,13.50
2020,04,16,10,10,13.60
2020,04,16,10,11,13.70
2020,04,16,10,12,13.70
2020,04,16,10,13,13.80
2020,04,16,10,14,13.90
2020,04,16,10,15,13.90
2020,04,16,10,16,13.90
2020,04,16,10,17,14.00
2020,04,16,10,18,14.00
2020,04,16,10,19,14.00
2020,04,16,10,20,14.00
2020,04,16,10,21,14.10
2020,04,16,10,22,14.10
2020,04,16,10,23,14.10
2020,04,16,10,24,14.20
2020,04,16,10,25,14.30
2020,04,16,10,26,14.30
2020,04,16,10,27,14.30
2020,04,16,10,28,14.30
2020,04,16,10,29,14.30
2020,04,16,10,30,14.40
2020,04,16,10,31,14.40
2020,04,16,10,32,14.50
2020,04,16,10,33,14.50
2020,04,16,10,34,14.60
2020,04,16,10,35,14.70
2020,04,16,10,36,14.70
2020,04,16,10,37,14.80
2020,04,16,10,38,14.80
2020,04,16,10,39,14.90
2020,04,16,10,40,14.90
2020,04,16,10,41,15.00
2020,04,16,10,42,15.10
2020,04,16,10,43,15.10
2020,04,16,10,44,15.20
2020,04,16,10,45,15.30
2020,04,16,10,46,15.40
2020,04,16,10,47,15.40
2020,04,16,10,48,15.50
2020,04,16,10,49,15.60
2020,04,16,10,50,15.60
2020,04,16,10,51,15.70
2020,04,16,10,52,15.70
2020,04,16,10,53,15.80
2020,04,16,10,54,15.80
2020,04,16,10,55,15.80
2020,04,16,10,56,15.80
2020,04,16,10,57,15.80
2020,04,16,10,58,15.90
2020,04,16,10,59,16.00
2020,04,16,11,00,16.00
2020,04,16,11,01,16.00
2020,04,16,11,02,16.10
2020,04,16,11,03,16.10
2020,04,16,11,04,16.10
2020,04,16,11,05,16.20
2020,04,16,11,06,16.20
2020,04,16,11,07,16.20
2020,04,16,11,08,16.30
2020,04,16,11,09,16.30
2020,04,16,11,10,16.40
2020,04,16,11,11,16.40
2020,04,16,11,12,16.40
2020,04,16,11,13,16.40
2020,04,16,11,14,16.40
2020,04,16,11,15,16.50
2020,04,16,11,16,16.50
2020,04,16,11,17,16.50
2020,04,16,11,18,16.50
2020,04,16,11,19,16.50
2020,04,16,11,20,16.40
2020,04,16,11,21,16.30
2020,04,16,11,22,16.10
2020,04,16,11,23,16.00
2020,04,16,11,24,15.90
2020,04,16,11,25,15.80
2020,04,16,11,26,15.70
2020,04,16,11,27,15.70
2020,04,16,11,28,15.70
2020,04,16,11,29,15.70
2020,04,16,11,30,15.70
2020,04,16,11,31,15.70
2020,04,16,11,32,15.70
2020,04,16,11,33,15.60
2020,04,16,11,34,15.60
2020,04,16,11,35,15.60
2020,04,16,11,36,15.60
2020,04,16,11,37,15.60
2020,04,16,11,38,15.60
2020,04,16,11,39,15.60
2020,04,16,11,40,15.60
2020,04,16,11,41,15.60
2020,04,16,11,42,15.60
2020,04,16,11,43,15.70
2020,04,16,11,44,15.80
2020,04,16,11,45,15.80
2020,04,16,11,46,15.80
2020,04,16,11,47,15.80
2020,04,16,11,48,15.80
2020,04,16,11,49,15.90
2020,04,16,11,50,15.90
2020,04,16,11,51,16.00
2020,04,16,11,52,16.00
2020,04,16,11,53,16.00
2020,04,16,11,54,16.00
2020,04,16,11,55,16.00
2020,04,16,11,56,16.10
2020,04,16,11,57,16.10
2020,04,16,11,58,16.20
2020,04,16,11,59,16.30
2020,04,16,12,00,16.30
2020,04,16,12,01,16.30
2020,04,16,12,02,16.30
2020,04,16,12,03,16.30
2020,04,16,12,04,16.30
2020,04,16,12,05,16.30
2020,04,16,12,06,16.30
2020,04,16,12,07,16.30
2020,04,16,12,08,16.20
2020,04,16,12,09,16.10
2020,04,16,12,10,16.00
2020,04,16,12,11,15.90
2020,04,16,12,12,15.80
2020,04,16,12,13,15.90
2020,04,16,12,14,15.90
2020,04,16,12,15,15.90
2020,04,16,12,16,15.90
2020,04,16,12,17,15.80
2020,04,16,12,18,15.80
2020,04,16,12,19,15.90
2020,04,16,12,20,15.90
2020,04,16,12,21,15.90
2020,04,16,12,22,16.00
2020,04,16,12,23,16.00
2020,04,16,12,24,16.10
2020,04,16,12,25,16.10
2020,04,16,12,26,16.10
2020,04,16,12,27,16.10
2020,04,16,12,28,16.00
2020,04,16,12,29,15.90
2020,04,16,12,30,15.90
2020,04,16,12,31,15.80
2020,04,16,12,32,15.80
2020,04,16,12,33,15.80
2020,04,16,12,34,15.80
2020,04,16,12,35,15.80
2020,04,16,12,36,15.80
2020,04,16,12,37,15.80
2020,04,16,12,38,15.90
2020,04,16,12,39,15.90
2020,04,16,12,40,16.00
2020,04,16,12,41,16.00
2020,04,16,12,42,16.10
2020,04,16,12,43,16.20
2020,04,16,12,44,16.20
2020,04,16,12,45,16.30
2020,04,16,12,46,16.30
2020,04,16,12,47,16.30
2020,04,16,12,48,16.30
2020,04,16,12,49,16.30
2020,04,16,12,50,16.20
2020,04,16,12,51,16.20
2020,04,16,12,52,16.10
2020,04,16,12,53,16.10
2020,04,16,12,54,16.10
2020,04,16,12,55,16.10
2020,04,16,12,56,16.10
2020,04,16,12,57,16.10
2020,04,16,12,58,16.10
2020,04,16,12,59,16.20
2020,04,16,13,00,16.30
2020,04,16,13,01,16.40
2020,04,16,13,02,16.50
2020,04,16,13,03,16.60
2020,04,16,13,04,16.70
2020,04,16,13,05,16.70
2020,04,16,13,06,16.80
2020,04,16,13,07,16.80
2020,04,16,13,08,16.80
2020,04,16,13,09,16.80
2020,04,16,13,10,16.80
2020,04,16,13,11,16.80
2020,04,16,13,12,16.80
2020,04,16,13,13,16.90
2020,04,16,13,14,16.90
2020,04,16,13,15,17.00
2020,04,16,13,16,17.00
2020,04,16,13,17,17.00
2020,04,16,13,18,16.90
2020,04,16,13,19,16.90
2020,04,16,13,20,16.80
2020,04,16,13,21,16.80
2020,04,16,13,22,16.80
2020,04,16,13,23,16.80
2020,04,16,13,24,16.80
2020,04,16,13,25,16.70
2020,04,16,13,26,16.70
2020,04,16,13,27,16.60
2020,04,16,13,28,16.60
2020,04,16,13,29,16.50
2020,04,16,13,30,16.50
2020,04,16,13,31,16.50
2020,04,16,13,32,16.50
2020,04,16,13,33,16.50
2020,04,16,13,34,16.50
2020,04,16,13,35,16.50
2020,04,16,13,36,16.60
2020,04,16,13,37,16.60
2020,04,16,13,38,16.60
2020,04,16,13,39,16.70
2020,04,16,13,40,16.70
2020,04,16,13,41,16.70
2020,04,16,13,42,16.70
2020,04,16,13,43,16.80
2020,04,16,13,44,16.80
2020,04,16,13,45,16.90
2020,04,16,13,46,16.90
2020,04,16,13,47,16.90
2020,04,16,13,48,17.00
2020,04,16,13,49,17.00
2020,04,16,13,50,17.00
2020,04,16,13,51,17.10
2020,04,16,13,52,17.20
2020,04,16,13,53,17.20
2020,04,16,13,54,17.30
2020,04,16,13,55,17.30
2020,04,16,13,56,17.40
2020,04,16,13,57,17.40
2020,04,16,13,58,17.50
2020,04,16,13,59,17.50
2020,04,16,14,00,17.60
2020,04,16,14,01,17.60
2020,04,16,14,02,17.70
2020,04,16,14,03,17.70
2020,04,16,14,04,17.80
2020,04,16,14,05,17.80
2020,04,16,14,06,17.80
2020,04,16,14,07,17.70
2020,04,16,14,08,17.70
2020,04,16,14,09,17.80
2020,04,16,14,10,17.80
2020,04,16,14,11,17.80
2020,04,16,14,12,17.90
2020,04,16,14,13,17.90
2020,04,16,14,14,18.00
2020,04,16,14,15,18.00
2020,04,16,14,16,18.10
2020,04,16,14,17,18.10
2020,04,16,14,18,18.10
2020,04,16,14,19,18.00
2020,04,16,14,20,18.00
2020,04,16,14,21,18.00
2020,04,16,14,22,18.10
2020,04,16,14,23,18.10
2020,04,16,14,24,18.20
2020,04,16,14,25,18.20
2020,04,16,14,26,18.30
2020,04,16,14,27,18.30
2020,04,16,14,28,18.40
2020,04,16,14,29,18.40
2020,04,16,14,30,18.40
2020,04,16,14,31,18.50
2020,04,16,14,32,18.50
2020,04,16,14,33,18.50
2020,04,16,14,34,18.50
2020,04,16,14,35,18.50
2020,04,16,14,36,18.50
2020,04,16,14,37,18.50
2020,04,16,14,38,18.50
2020,04,16,14,39,18.50
2020,04,16,14,40,18.40
2020,04,16,14,41,18.40
2020,04,16,14,42,18.40
2020,04,16,14,43,18.40
2020,04,16,14,44,18.30
2020,04,16,14,45,18.30
2020,04,16,14,46,18.30
2020,04,16,14,47,18.40
2020,04,16,14,48,18.40
2020,04,16,14,49,18.50
2020,04,16,14,50,18.60
2020,04,16,14,51,18.60
2020,04,16,14,52,18.70
2020,04,16,14,53,18.80
2020,04,16,14,54,18.90
2020,04,16,14,55,18.90
2020,04,16,14,56,18.90
2020,04,16,14,57,19.00
2020,04,16,14,58,19.00
2020,04,16,14,59,19.00
2020,04,16,15,00,19.10
2020,04,16,15,01,19.10
2020,04,16,15,02,19.10
2020,04,16,15,03,19.10
2020,04,16,15,04,19.10
2020,04,16,15,05,19.00
2020,04,16,15,06,19.00
2020,04,16,15,07,18.90
2020,04,16,15,08,18.80
2020,04,16,15,09,18.70
2020,04,16,15,10,18.60
2020,04,16,15,11,18.50
2020,04,16,15,12,18.40
2020,04,16,15,13,18.40
2020,04,16,15,14,18.30
2020,04,16,15,15,18.30
2020,04,16,15,16,18.20
2020,04,16,15,17,18.20
2020,04,16,15,18,18.20
2020,04,16,15,19,18.30
2020,04,16,15,20,18.30
2020,04,16,15,21,18.40
2020,04,16,15,22,18.40
2020,04,16,15,23,18.50
2020,04,16,15,24,18.50
2020,04,16,15,25,18.60
2020,04,16,15,26,18.70
2020,04,16,15,27,18.70
2020,04,16,15,28,18.80
2020,04,16,15,29,18.90
2020,04,16,15,30,19.00
2020,04,16,15,31,19.10
2020,04,16,15,32,19.20
2020,04,16,15,33,19.30
2020,04,16,15,34,19.40
2020,04,16,15,35,19.40
2020,04,16,15,36,19.40
2020,04,16,15,37,19.40
2020,04,16,15,38,19.40
2020,04,16,15,39,19.30
2020,04,16,15,40,19.30
2020,04,16,15,41,19.30
2020,04,16,15,42,19.20
2020,04,16,15,43,19.20
2020,04,16,15,44,19.10
2020,04,16,15,45,19.10
2020,04,16,15,46,19.10
2020,04,16,15,47,19.10
2020,04,16,15,48,19.10
2020,04,16,15,49,19.20
2020,04,16,15,50,19.20
2020,04,16,15,51,19.30
2020,04,16,15,52,19.30
2020,04,16,15,53,19.30
2020,04,16,15,54,19.30
2020,04,16,15,55,19.40
2020,04,16,15,56,19.40
2020,04,16,15,57,19.40
2020,04,16,15,58,19.40
2020,04,16,15,59,19.40
2020,04,16,16,00,19.50
2020,04,16,16,01,19.50
2020,04,16,16,02,19.50
2020,04,16,16,03,19.60
2020,04,16,16,04,19.60
2020,04,16,16,05,19.70
2020,04,16,16,06,19.70
2020,04,16,16,07,19.70
2020,04,16,16,08,19.70
2020,04,16,16,09,19.60
2020,04,16,16,10,19.60
2020,04,16,16,11,19.60
2020,04,16,16,12,19.60
2020,04,16,16,13,19.50
2020,04,16,16,14,19.40
2020,04,16,16,15,19.30
2020,04,16,16,16,19.20
2020,04,16,16,17,19.10
2020,04,16,16,18,19.00
2020,04,16,16,19,18.90
2020,04,16,16,20,18.90
2020,04,16,16,21,18.80
2020,04,16,16,22,18.80
2020,04,16,16,23,18.80
2020,04,16,16,24,18.70
2020,04,16,16,25,18.70
2020,04,16,16,26,18.70
2020,04,16,16,27,18.60
2020,04,16,16,28,18.60
2020,04,16,16,29,18.60
2020,04,16,16,30,18.60
2020,04,16,16,31,18.60
2020,04,16,16,32,18.60
2020,04,16,16,33,18.60
2020,04,16,16,34,18.60
2020,04,16,16,35,18.60
2020,04,16,16,36,18.60
2020,04,16,16,37,18.70
2020,04,16,16,38,18.70
2020,04,16,16,39,18.70
2020,04,16,16,40,18.70
2020,04,16,16,41,18.70
2020,04,16,16,42,18.70
2020,04,16,16,43,18.70
2020,04,16,16,44,18.80
2020,04,16,16,45,18.80
2020,04,16,16,46,18.80
2020,04,16,16,47,18.80
2020,04,16,16,48,18.80
2020,04,16,16,49,18.90
2020,04,16,16,50,18.90
2020,04,16,16,51,18.90
2020,04,16,16,52,18.90
2020,04,16,16,53,18.90
2020,04,16,16,54,19.00
2020,04,16,16,55,18.90
2020,04,16,16,56,18.90
2020,04,16,16,57,18.90
2020,04,16,16,58,18.90
2020,04,16,16,59,18.90
2020,04,16,17,00,18.90
2020,04,16,17,01,18.90
2020,04,16,17,02,18.90
2020,04,16,17,03,18.90
2020,04,16,17,04,18.80
2020,04,16,17,05,18.80
2020,04,16,17,06,18.80
2020,04,16,17,07,18.70
2020,04,16,17,08,18.70
2020,04,16,17,09,18.70
2020,04,16,17,10,18.70
2020,04,16,17,11,18.70
2020,04,16,17,12,18.70
2020,04,16,17,13,18.80
2020,04,16,17,14,18.80
2020,04,16,17,15,18.80
2020,04,16,17,16,18.80
2020,04,16,17,17,18.80
2020,04,16,17,18,18.80
2020,04,16,17,19,18.80
2020,04,16,17,20,18.80
2020,04,16,17,21,18.90
2020,04,16,17,22,18.80
2020,04,16,17,23,18.80
2020,04,16,17,24,18.80
2020,04,16,17,25,18.70
2020,04,16,17,26,18.70
2020,04,16,17,27,18.60
2020,04,16,17,28,18.60
2020,04,16,17,29,18.50
2020,04,16,17,30,18.50
2020,04,16,17,31,18.40
2020,04,16,17,32,18.40
2020,04,16,17,33,18.40
2020,04,16,17,34,18.30
2020,04,16,17,35,18.30
2020,04,16,17,36,18.30
2020,04,16,17,37,18.30
2020,04,16,17,38,18.30
2020,04,16,17,39,18.30
2020,04,16,17,40,18.30
2020,04,16,17,41,18.30
2020,04,16,17,42,18.30
2020,04,16,17,43,18.30